Location: Arbon
(43.0005°N, 0.7472°E)
Time: 15:06:46
(UTC+00:00)

Lacrosse 4 Rocket - Pass Details

Date: 07 August 2020
Orbit: 544 x 615 km, 68.0° (Epoch: 22 September)

Event Time Altitude Azimuth Distance (km) Brightness Sun altitude
Exits shadow 01:49:16 11° 305° (NW) 1,822 4.0 -25.8°
Maximum altitude 01:50:09 12° 318° (NW) 1,781 4.1 -25.8°
Drops below altitude 10° 01:51:40 10° 339° (NNW) 1,882 4.5 -25.6°
Sets 01:55:21 0° 13° (NNE) 2,765 6.1 -25.3°
